[[{"header":{"parameterUnit":"m.s-1","parameterCategory":2,"la1":30.2991,"la2":30.254,"lo1":-89.0895,"lo2":-89.0444,"dy":0.0017,"dx":0.0017,"nx":28,"ny":28,"refTime":"2024-08-09T21:00:00:Z","depth":"0","parameterNumber":2,"parameterNumberName":"U-component_of_CURRENTS"},"data":[0,0,0,0,0,0,0,0,0,0,0,0,0,0,0,0,0,0,0,0,0,0,0,0,0,0,0,0,0,0,0,0,0,0,0,0,0,0,0,0,0,0,0,0,0,0,0,0,0,0,0,0,0,0,0,0,0,0,0.1152,0.1151,0,0.1068,0.1067,0.1066,0.1031,0.1031,0.1031,0.1031,0.1055,0.1056,0.1056,0,0,0,0,0,0,0,0,0,0,0,0,0,0.1224,0.1223,0.1152,0.1151,0.115,0.1068,0.1067,0.1066,0.1031,0.1031,0.1031,0.1031,0.1055,0.1056,0.1056,0,0,0,0,0,0,0,0,0,0,0,0,0,0.1172,0.1223,0.1152,0.1122,0.1118,0.1068,0.1067,0.1065,0.1031,0.1031,0.1031,0.1031,0.1055,0.1056,0.1056,0.1059,0,0,0.1059,0.1059,0,0,0,0,0,0,0,0,0.1176,0.117,0.1127,0.1124,0.112,0.1059,0.1101,0.1068,0.1031,0.1065,0.1031,0.1031,0.1066,0.1066,0.1049,0.106,0.1061,0.1059,0.1059,0.106,0.106,0,0,0,0,0,0,0,0.1179,0.1173,0.112,0.1126,0.1121,0.1092,0.1086,0.1094,0.1068,0.1062,0.1059,0.1048,0.1065,0.1048,0.105,0.1061,0.1059,0.106,0.106,0.1061,0.1187,0.119,0,0,0,0,0,0,0.1191,0.1177,0.1122,0.1117,0.1148,0.1091,0.1084,0.1079,0.1066,0.1063,0.1048,0.1047,0.1047,0.1049,0.1051,0.1183,0.106,0.1061,0.1061,0.1184,0.1188,0.1191,0,0,0,0,0,0,0.1193,0.1187,0.1126,0.1144,0.1134,0.109,0.1085,0.1077,0.1061,0.1054,0.1053,0.104,0.1047,0.105,0.1064,0.1179,0.1061,0.1062,0.1181,0.1185,0.1189,0.1366,0,0,0,0,0,0,0.1195,0.1188,0.1204,0.1145,0.1133,0.1136,0.1084,0.1076,0.1054,0.1052,0.1047,0.1049,0.1047,0.1063,0.1065,0.1178,0.1062,0.1177,0.1183,0.1188,0.1356,0.1376,0.1392,0,0,0,0,0,0.1198,0.1275,0.1205,0.1199,0.1151,0.1138,0.1131,0.1099,0.1054,0.1078,0.1048,0.1049,0.11,0.1064,0.1066,0.1183,0.1175,0.1181,0.1188,0.1348,0.1372,0.1392,0,0,0,0,0,0,0.1404,0.1275,0.1199,0.1252,0.1192,0.1133,0.1173,0.1099,0.1088,0.1096,0.1054,0.1056,0.112,0.1108,0.1068,0.1234,0.1151,0.1158,0.1273,0.1295,0.1312,0.1381,0.1063,0,0,0,0,0,0.1424,0.1401,0.1291,0.1341,0.1311,0.1217,0.1207,0.1167,0.1138,0.1131,0.1106,0.1112,0.1148,0.118,0.1192,0.1266,0.1301,0.1351,0.1369,0.1384,0.144,0.1604,0.1644,0.1212,0.1212,0.1212,0,0,0.1525,0.1451,0.1446,0.1371,0.1327,0.1337,0.1217,0.1227,0.1246,0.1141,0.1183,0.1157,0.1169,0.126,0.1294,0.1271,0.1509,0.1392,0.1406,0.1455,0.1615,0.1658,0.1696,0.1216,0.1216,0.1215,0,0,0.1717,0.1637,0.1661,0.1606,0.1523,0.1463,0.1456,0.137,0.1346,0.1344,0.1301,0.1342,0.1346,0.1416,0.1446,0.1569,0.1579,0.1566,0.1745,0.1903,0.1941,0.1976,0.2014,0.2051,0.1602,0.1602,0.1602,0,0.1843,0.1829,0.1687,0.1701,0.1683,0.1521,0.1567,0.1533,0.1463,0.1473,0.1395,0.146,0.1451,0.1621,0.1663,0.1625,0.1662,0.1663,0.1933,0.1968,0.2001,0.2032,0.2071,0.1611,0.161,0.1609,0.1609,0,0.2013,0.2001,0.2039,0.1958,0.1941,0.196,0.1859,0.1848,0.1764,0.1721,0.1795,0.1765,0.1824,0.1832,0.1783,0.2021,0.1948,0.1918,0.189,0.2056,0.2076,0.2113,0.1625,0.1621,0.1619,0.1616,0,0,0.2237,0.2162,0.2157,0.2124,0.2055,0.2041,0.211,0.2097,0.2115,0.2086,0.2147,0.2223,0.2174,0.2206,0.2166,0.2296,0.2511,0.2216,0.222,0.2273,0.2792,0.2681,0.2708,0.2537,0.2546,0.2553,0.2691,0,0.2381,0.2424,0.237,0.2422,0.2407,0.2322,0.2373,0.2359,0.2309,0.2323,0.235,0.2369,0.2328,0.2323,0.2482,0.2455,0.2627,0.2472,0.2607,0.261,0.2512,0.2757,0.2689,0.2805,0.2727,0.2733,0.2738,0,0.2487,0.2485,0.2553,0.2528,0.2525,0.2559,0.2557,0.2585,0.2612,0.258,0.2672,0.2613,0.277,0.2679,0.2914,0.2808,0.2866,0.2867,0.2873,0.2754,0.2575,0.2637,0.2875,0.2737,0.2794,0.2789,0.2785,0,0.2529,0.2582,0.2618,0.261,0.2602,0.2642,0.2649,0.2666,0.266,0.2725,0.271,0.2888,0.2888,0.3068,0.3046,0.3011,0.3246,0.3195,0.3182,0.3166,0.3132,0.3101,0.3285,0.3483,0.3483,0.3483,0.3482,0,0.259,0.2599,0.2628,0.2616,0.2661,0.2669,0.2706,0.273,0.2769,0.2776,0.2832,0.2853,0.2992,0.3077,0.3146,0.3251,0.3363,0.329,0.3259,0.3176,0.3149,0.3038,0.2947,0.3488,0.3486,0.3485,0.3485,0,0.2538,0.2573,0.2584,0.263,0.2643,0.265,0.2672,0.269,0.2741,0.2755,0.277,0.2852,0.296,0.306,0.3257,0.3317,0.335,0.3465,0.3282,0.3232,0.3091,0.301,0.3076,0.3032,0.3527,0.3526,0.3525,0,0.2491,0.2501,0.2544,0.2545,0.2548,0.2571,0.2574,0.2642,0.2651,0.2728,0.2729,0.2829,0.2871,0.3083,0.3228,0.3394,0.3296,0.3411,0.3392,0.3155,0.3045,0.2883,0.2831,0.3379,0.3377,0.3376,0.3375,0,0.2401,0.2423,0.2437,0.2442,0.2448,0.246,0.2482,0.2483,0.2562,0.2588,0.2632,0.2681,0.2866,0.2979,0.3165,0.3278,0.323,0.3381,0.3262,0.3091,0.2815,0.2727,0.3104,0.3361,0.3362,0.3363,0.3364,0.3364,0.2316,0.2307,0.2338,0.2335,0.2342,0.2339,0.2324,0.2361,0.2379,0.2397,0.2504,0.2547,0.2732,0.2987,0.3086,0.3158,0.3134,0.3123,0.3081,0.2964,0.2848,0.3129,0.3262,0.3263,0.3263,0.3264,0.3264,0,0.2208,0.2224,0.2227,0.2226,0.2199,0.2242,0.225,0.2231,0.2218,0.2266,0.23,0.2422,0.2567,0.2749,0.2917,0.2863,0.2836,0.2781,0.2591,0.2592,0.2984,0.29,0.2808,0.2808,0.2809,0.2809,0.2809,0.2809,0.215,0.2129,0.2148,0.209,0.2086,0.2043,0.2036,0.2022,0.2045,0.2028,0.2055,0.2116,0.2289,0.2445,0.2504,0.2525,0.2368,0.2259,0.2243,0.2523,0.2551,0.2578,0.2483,0.2305,0.2304,0.1811,0.1807,0.1803]},{"header":{"parameterUnit":"m.s-1","parameterCategory":2,"la1":30.2991,"la2":30.254,"lo1":-89.0895,"lo2":-89.0444,"dy":0.0017,"dx":0.0017,"nx":28,"ny":28,"refTime":"2024-08-09T21:00:00:Z","depth":"0","parameterNumber":3,"parameterNumberName":"V-component_of_CURRENTS"},"data":[0,0,0,0,0,0,0,0,0,0,0,0,0,0,0,0,0,0,0,0,0,0,0,0,0,0,0,0,0,0,0,0,0,0,0,0,0,0,0,0,0,0,0,0,0,0,0,0,0,0,0,0,0,0,0,0,0,0,-0.0482,-0.0484,0,-0.0645,-0.0646,-0.0648,-0.075,-0.0751,-0.0752,-0.0752,-0.0789,-0.079,-0.079,0,0,0,0,0,0,0,0,0,0,0,0,0,-0.0274,-0.0277,-0.0482,-0.0484,-0.0486,-0.0644,-0.0646,-0.0648,-0.075,-0.0751,-0.0752,-0.0753,-0.0789,-0.079,-0.079,0,0,0,0,0,0,0,0,0,0,0,0,0,-0.039,-0.0277,-0.0481,-0.0558,-0.0567,-0.0644,-0.0646,-0.0649,-0.075,-0.0751,-0.0752,-0.0753,-0.0789,-0.079,-0.079,-0.0767,0,0,-0.0791,-0.0791,0,0,0,0,0,0,0,0,-0.0383,-0.0397,-0.0544,-0.0553,-0.0563,-0.0681,-0.0587,-0.0683,-0.0749,-0.0677,-0.0752,-0.0754,-0.0742,-0.0747,-0.0772,-0.0769,-0.077,-0.0791,-0.0791,-0.0791,-0.0791,0,0,0,0,0,0,0,-0.0375,-0.0391,-0.0543,-0.0547,-0.0558,-0.059,-0.0607,-0.0606,-0.0696,-0.0683,-0.0692,-0.0714,-0.0746,-0.0772,-0.0773,-0.0771,-0.0791,-0.0791,-0.0791,-0.0791,-0.0655,-0.0652,0,0,0,0,0,0,-0.0359,-0.0383,-0.0538,-0.0548,-0.0478,-0.0593,-0.0612,-0.0639,-0.0699,-0.0711,-0.0713,-0.0719,-0.0771,-0.0773,-0.0775,-0.0687,-0.0791,-0.0791,-0.0792,-0.0659,-0.0654,-0.065,0,0,0,0,0,0,-0.0354,-0.0371,-0.0532,-0.0471,-0.0494,-0.0595,-0.0625,-0.0642,-0.0662,-0.0724,-0.0733,-0.0715,-0.0772,-0.0774,-0.0764,-0.0691,-0.0792,-0.0792,-0.0663,-0.0658,-0.0652,-0.055,0,0,0,0,0,0,-0.0347,-0.0369,-0.0362,-0.047,-0.0497,-0.055,-0.0624,-0.0644,-0.0676,-0.0684,-0.0728,-0.0734,-0.0773,-0.0763,-0.0764,-0.0693,-0.0792,-0.0668,-0.0661,-0.0654,-0.0559,-0.0542,-0.0528,0,0,0,0,0,-0.0339,-0.0328,-0.0361,-0.0379,-0.0492,-0.0548,-0.0563,-0.0638,-0.0674,-0.0663,-0.0703,-0.0732,-0.0717,-0.0762,-0.0764,-0.0691,-0.0672,-0.0663,-0.0655,-0.0566,-0.0545,-0.0528,0,0,0,0,0,0,-0.0239,-0.0341,-0.0379,-0.0401,-0.0457,-0.0566,-0.0564,-0.062,-0.0647,-0.065,-0.071,-0.0717,-0.0673,-0.0689,-0.0737,-0.0623,-0.0686,-0.0678,-0.0618,-0.0599,-0.0584,-0.0547,-0.0792,0,0,0,0,0,-0.0212,-0.0232,-0.0329,-0.0344,-0.0362,-0.0457,-0.0484,-0.0538,-0.0591,-0.0607,-0.0643,-0.0652,-0.0638,-0.0629,-0.0627,-0.0577,-0.0573,-0.0519,-0.0503,-0.049,-0.0456,-0.0384,-0.036,-0.0622,-0.0622,-0.0622,0,0,-0.0188,-0.0238,-0.0256,-0.0323,-0.0371,-0.0388,-0.0474,-0.0506,-0.0508,-0.0599,-0.0589,-0.0606,-0.0613,-0.0564,-0.054,-0.057,-0.0417,-0.0479,-0.0469,-0.0441,-0.0373,-0.0348,-0.0325,-0.0616,-0.0617,-0.0618,0,0,-0.0146,-0.0178,-0.0181,-0.0211,-0.0272,-0.032,-0.032,-0.0408,-0.0424,-0.043,-0.0475,-0.0445,-0.0455,-0.0432,-0.0423,-0.0309,-0.0343,-0.0301,-0.0192,-0.0123,-0.0101,-0.0082,-0.0071,-0.0052,-0.0288,-0.0288,-0.0288,0,-0.0109,-0.0132,-0.0186,-0.0187,-0.02,-0.028,-0.0276,-0.0296,-0.0369,-0.0357,-0.0402,-0.0361,-0.0378,-0.0284,-0.0253,-0.027,-0.0266,-0.0275,-0.0105,-0.0085,-0.0067,-0.0061,-0.0041,-0.0282,-0.0283,-0.0283,-0.0284,0,-0.0076,-0.0084,-0.0077,-0.0106,-0.0114,-0.0119,-0.0159,-0.0153,-0.0185,-0.0215,-0.0144,-0.0161,-0.0134,-0.0117,-0.0162,-0.0022,-0.0074,-0.0104,-0.016,-0.0035,-0.0036,-0.0017,-0.0274,-0.0276,-0.0277,-0.0279,0,0,-0.0037,-0.0054,-0.0054,-0.0039,-0.0069,-0.0072,-0.0039,-0.0032,0.001,-0.001,0.0055,0.0096,0.0082,0.0097,0.0078,0.0144,0.0249,0.0077,0.0078,0.0074,0.0364,0.0293,0.0305,0.024,0.0245,0.0248,0.03,0,0.0001,0.0028,0.0003,0.0046,0.0066,0.0039,0.0082,0.0092,0.0098,0.0147,0.0177,0.0221,0.0168,0.0187,0.0255,0.0242,0.031,0.0236,0.0258,0.0258,0.0169,0.033,0.0327,0.0372,0.0318,0.0321,0.0324,0,0.0039,0.0057,0.0098,0.0143,0.0152,0.0173,0.0247,0.027,0.0326,0.0331,0.039,0.038,0.0469,0.0405,0.0497,0.0443,0.043,0.0425,0.0426,0.0346,0.0226,0.0247,0.0407,0.0328,0.0352,0.035,0.0348,0,0.0105,0.013,0.0175,0.0184,0.0217,0.0254,0.0281,0.0333,0.0371,0.0448,0.0476,0.0565,0.0595,0.0634,0.0585,0.0551,0.0668,0.0611,0.0548,0.0538,0.0539,0.0523,0.0621,0.0722,0.0722,0.0722,0.0722,0,0.0158,0.0197,0.0216,0.024,0.0317,0.0331,0.0417,0.0445,0.0511,0.0568,0.0578,0.064,0.0657,0.0689,0.0659,0.0656,0.0725,0.0616,0.0583,0.0569,0.0556,0.0484,0.0414,0.0723,0.0723,0.0723,0.0722,0,0.0211,0.0216,0.0272,0.0321,0.034,0.0398,0.0455,0.0517,0.057,0.0646,0.0665,0.0713,0.0748,0.0743,0.0787,0.0733,0.0699,0.0719,0.0667,0.0629,0.0482,0.0417,0.0495,0.0472,0.0685,0.0684,0.0683,0,0.0235,0.0268,0.0317,0.0342,0.0357,0.0431,0.0471,0.0531,0.0579,0.068,0.0715,0.0776,0.0804,0.0828,0.0777,0.0746,0.0681,0.0693,0.0654,0.0525,0.043,0.0397,0.037,0.0679,0.0679,0.0678,0.0678,0,0.0281,0.0293,0.0328,0.0372,0.0413,0.0467,0.0529,0.0571,0.0641,0.0702,0.0779,0.0821,0.0839,0.0827,0.0769,0.0726,0.0629,0.0676,0.0603,0.0508,0.0428,0.0369,0.0536,0.0672,0.0673,0.0673,0.0673,0.0674,0.0301,0.0329,0.0359,0.0405,0.0444,0.0493,0.054,0.0596,0.0669,0.0763,0.0805,0.0889,0.0881,0.0814,0.0719,0.0565,0.0576,0.0519,0.047,0.0462,0.0409,0.053,0.0581,0.0581,0.0581,0.0581,0.0581,0,0.0319,0.0346,0.0388,0.0435,0.0473,0.0495,0.0567,0.0612,0.0678,0.0778,0.0846,0.0942,0.0853,0.0766,0.0581,0.0416,0.0373,0.0325,0.0309,0.0305,0.0481,0.0447,0.0401,0.0401,0.0401,0.0401,0.0401,0.0401,0.0327,0.0362,0.0384,0.0445,0.0478,0.0533,0.057,0.0632,0.0711,0.0842,0.0948,0.1044,0.107,0.0641,0.0349,0.0254,0.0148,0.0105,0.0062,0.0178,0.0194,0.0208,0.0165,0.0059,0.0059,-0.0065,-0.0067,-0.0068]}],[{"header":{"parameterUnit":"m.s-1","parameterCategory":2,"la1":30.2991,"la2":30.254,"lo1":-89.0895,"lo2":-89.0444,"dy":0.0017,"dx":0.0017,"nx":28,"ny":28,"refTime":"2024-08-09T21:00:00:Z","depth":"2","parameterNumber":2,"parameterNumberName":"U-component_of_CURRENTS"},"data":[0,0,0,0,0,0,0,0,0,0,0,0,0,0,0,0,0,0,0,0,0,0,0,0,0,0,0,0,0,0,0,0,0,0,0,0,0,0,0,0,0,0,0,0,0,0,0,0,0,0,0,0,0,0,0,0,0,0,0.0184,0.0183,0,0.0106,0.0106,0.0105,0.0098,0.0098,0.0099,0.0099,0.0082,0.0081,0.008,0,0,0,0,0,0,0,0,0,0,0,0,0,0.034,0.0337,0.0184,0.0183,0.0182,0.0107,0.0106,0.0105,0.0098,0.0098,0.0099,0.01,0.0082,0.0081,0.008,0,0,0,0,0,0,0,0,0,0,0,0,0,0.0271,0.0337,0.0184,0.0167,0.0164,0.0107,0.0106,0.0105,0.0098,0.0098,0.0099,0.01,0.0082,0.0081,0.008,0.0054,0,0,0.0075,0.0075,0,0,0,0,0,0,0,0,0.0275,0.0266,0.0171,0.0168,0.0165,0.011,0.0154,0.009,0.0097,0.0126,0.0099,0.01,0.0094,0.0092,0.0079,0.0054,0.0053,0.0075,0.0074,0.0073,0.0073,0,0,0,0,0,0,0,0.028,0.0269,0.0157,0.0169,0.0166,0.0167,0.0159,0.0142,0.011,0.0124,0.0122,0.0108,0.0094,0.008,0.0079,0.0053,0.0075,0.0074,0.0073,0.0072,0.008,0.0081,0,0,0,0,0,0,0.0281,0.0273,0.0159,0.0154,0.022,0.0164,0.0154,0.0129,0.0109,0.0105,0.0108,0.0108,0.0082,0.008,0.0078,0.0129,0.0074,0.0072,0.0071,0.0079,0.008,0.0081,0,0,0,0,0,0,0.0285,0.0271,0.0162,0.0211,0.0196,0.016,0.0132,0.0127,0.0127,0.0096,0.0094,0.0114,0.0083,0.008,0.0079,0.0126,0.0071,0.007,0.0077,0.0079,0.008,0.018,0,0,0,0,0,0,0.0289,0.0273,0.027,0.021,0.0193,0.0148,0.0131,0.0125,0.0115,0.0115,0.01,0.0098,0.0083,0.0081,0.0078,0.0123,0.0069,0.0076,0.0078,0.008,0.0175,0.0185,0.0193,0,0,0,0,0,0.0295,0.0287,0.027,0.0257,0.0186,0.0148,0.0141,0.012,0.0115,0.0122,0.0109,0.0099,0.0092,0.008,0.0076,0.0122,0.0075,0.0077,0.008,0.0171,0.0183,0.0193,0,0,0,0,0,0,0.0359,0.0282,0.0264,0.0235,0.0202,0.0146,0.0152,0.0127,0.0119,0.013,0.0101,0.0098,0.0115,0.0097,0.0085,0.0129,0.0087,0.0088,0.0158,0.0169,0.0177,0.0223,0.0068,0,0,0,0,0,0.0368,0.0348,0.0276,0.0265,0.0246,0.0201,0.0187,0.0169,0.0144,0.0142,0.013,0.0122,0.0117,0.0126,0.0112,0.0132,0.012,0.0161,0.017,0.0178,0.0211,0.0205,0.0217,0.0089,0.0089,0.0089,0,0,0.0379,0.0351,0.0331,0.0279,0.0255,0.0231,0.0197,0.0185,0.0198,0.0142,0.0172,0.0145,0.0123,0.0148,0.0157,0.0145,0.0208,0.0181,0.0188,0.0218,0.0209,0.0222,0.0233,0.0091,0.009,0.009,0,0,0.0393,0.0379,0.0351,0.0335,0.0302,0.0279,0.0277,0.023,0.0251,0.0253,0.0225,0.0228,0.0215,0.022,0.0217,0.0264,0.0242,0.0262,0.0361,0.0354,0.0365,0.0375,0.0378,0.0387,0.0281,0.0281,0.0282,0,0.0395,0.0367,0.0344,0.0329,0.0322,0.0301,0.0279,0.0301,0.0272,0.0319,0.0284,0.0274,0.0257,0.0291,0.0322,0.029,0.0283,0.0323,0.0368,0.0377,0.0385,0.0386,0.0395,0.0286,0.0286,0.0285,0.0285,0,0.0375,0.0369,0.0368,0.0338,0.034,0.033,0.0338,0.0378,0.0394,0.0419,0.0458,0.0405,0.0421,0.0403,0.0387,0.0444,0.0418,0.0367,0.0346,0.0405,0.0401,0.0409,0.0294,0.0292,0.029,0.0289,0,0,0.0304,0.0329,0.0329,0.0339,0.0344,0.0339,0.0415,0.0468,0.0522,0.0542,0.0585,0.0603,0.0606,0.0601,0.0555,0.055,0.0603,0.051,0.0507,0.0524,0.0605,0.0615,0.0623,0.0559,0.0561,0.0562,0.0581,0,0.0274,0.0268,0.0288,0.0308,0.0303,0.0357,0.0415,0.0499,0.056,0.0616,0.0648,0.0654,0.0676,0.0641,0.0675,0.0593,0.0628,0.0605,0.0539,0.0538,0.0547,0.0634,0.0513,0.0523,0.0588,0.0589,0.059,0,0.0229,0.0242,0.0248,0.031,0.0308,0.0336,0.0445,0.0489,0.0627,0.0669,0.0752,0.0758,0.0812,0.0749,0.0776,0.0761,0.0741,0.067,0.0668,0.0655,0.0562,0.0473,0.0534,0.0602,0.0601,0.06,0.0599,0,0.0206,0.0218,0.024,0.0254,0.031,0.0367,0.0406,0.0537,0.0594,0.0701,0.0725,0.0816,0.0799,0.0814,0.0809,0.0784,0.0776,0.0708,0.0706,0.0705,0.0583,0.057,0.074,0.074,0.074,0.074,0.074,0,0.0172,0.0194,0.0242,0.026,0.0307,0.0353,0.0427,0.05,0.0577,0.0647,0.0753,0.0768,0.0811,0.0842,0.0832,0.0835,0.0835,0.0765,0.0727,0.0615,0.0604,0.0647,0.0636,0.0741,0.0741,0.0741,0.074,0,0.0164,0.0186,0.0222,0.0281,0.0308,0.0352,0.0428,0.0474,0.0549,0.0615,0.0642,0.0752,0.0811,0.0858,0.0834,0.0846,0.0816,0.0811,0.0699,0.0651,0.074,0.0734,0.0812,0.0813,0.0814,0.0814,0.0815,0,0.016,0.0176,0.0242,0.0266,0.0303,0.0365,0.0404,0.0474,0.0511,0.0602,0.0615,0.071,0.0801,0.0829,0.0832,0.0855,0.0855,0.073,0.0677,0.0801,0.0755,0.0748,0.074,0.054,0.0538,0.0537,0.0536,0,0.0148,0.0183,0.0208,0.0258,0.0306,0.0345,0.04,0.0419,0.049,0.0539,0.06,0.0666,0.0756,0.0758,0.0811,0.0778,0.0726,0.0703,0.0848,0.0557,0.0551,0.0504,0.0504,0.0523,0.0524,0.0525,0.0526,0.0526,0.0141,0.0153,0.0185,0.0235,0.0282,0.0313,0.0333,0.0377,0.0417,0.0484,0.055,0.0603,0.0644,0.0683,0.0708,0.069,0.0706,0.0611,0.0612,0.0616,0.0598,0.0595,0.0572,0.0573,0.0575,0.0576,0.0577,0,0.0092,0.0117,0.0151,0.0194,0.0221,0.0278,0.0313,0.0316,0.0349,0.0437,0.0508,0.0453,0.0497,0.0555,0.0521,0.0541,0.0502,0.0506,0.043,0.0439,0.0449,0.0422,0.0349,0.035,0.035,0.0351,0,0,0.006,0.0063,0.008,0.0113,0.0163,0.0188,0.0207,0.0234,0.0279,0.0312,0.0332,0.0438,0.0474,0.0404,0.0415,0.0393,0.0419,0.0367,0.0526,0.0441,0.0452,0.0462,0.0425,0,0,0,0,0]},{"header":{"parameterUnit":"m.s-1","parameterCategory":2,"la1":30.2991,"la2":30.254,"lo1":-89.0895,"lo2":-89.0444,"dy":0.0017,"dx":0.0017,"nx":28,"ny":28,"refTime":"2024-08-09T21:00:00:Z","depth":"2","parameterNumber":3,"parameterNumberName":"V-component_of_CURRENTS"},"data":[0,0,0,0,0,0,0,0,0,0,0,0,0,0,0,0,0,0,0,0,0,0,0,0,0,0,0,0,0,0,0,0,0,0,0,0,0,0,0,0,0,0,0,0,0,0,0,0,0,0,0,0,0,0,0,0,0,0,-0.0171,-0.0171,0,-0.0154,-0.0153,-0.0153,-0.0128,-0.0128,-0.0127,-0.0127,-0.0168,-0.0169,-0.017,0,0,0,0,0,0,0,0,0,0,0,0,0,-0.0147,-0.0148,-0.0171,-0.0171,-0.0171,-0.0154,-0.0153,-0.0153,-0.0128,-0.0128,-0.0127,-0.0127,-0.0168,-0.0169,-0.017,0,0,0,0,0,0,0,0,0,0,0,0,0,-0.0144,-0.0148,-0.0171,-0.0158,-0.0157,-0.0154,-0.0153,-0.0153,-0.0128,-0.0128,-0.0127,-0.0127,-0.0167,-0.0169,-0.0171,-0.0187,0,0,-0.0176,-0.0177,0,0,0,0,0,0,0,0,-0.0144,-0.0144,-0.016,-0.0159,-0.0158,-0.0145,-0.016,-0.0168,-0.0128,-0.0136,-0.0127,-0.0127,-0.0168,-0.017,-0.0162,-0.0189,-0.0191,-0.0177,-0.0178,-0.0178,-0.0179,0,0,0,0,0,0,0,-0.0144,-0.0145,-0.0161,-0.016,-0.0159,-0.0142,-0.0142,-0.0161,-0.0152,-0.0135,-0.0134,-0.0137,-0.0167,-0.016,-0.0163,-0.0192,-0.0177,-0.0178,-0.0179,-0.018,-0.0304,-0.0306,0,0,0,0,0,0,-0.0155,-0.0145,-0.0162,-0.0161,-0.0154,-0.0143,-0.0142,-0.0147,-0.0151,-0.0151,-0.0137,-0.0136,-0.0157,-0.0161,-0.0164,-0.023,-0.0178,-0.018,-0.0181,-0.0302,-0.0305,-0.0307,0,0,0,0,0,0,-0.0154,-0.0156,-0.0162,-0.0155,-0.0155,-0.0145,-0.015,-0.0147,-0.0161,-0.0152,-0.0153,-0.0156,-0.0157,-0.0162,-0.0199,-0.023,-0.0181,-0.0183,-0.03,-0.0303,-0.0306,-0.0333,0,0,0,0,0,0,-0.0154,-0.0156,-0.0173,-0.0156,-0.0156,-0.0191,-0.015,-0.0147,-0.0163,-0.0162,-0.0169,-0.0171,-0.0157,-0.0196,-0.0201,-0.0232,-0.0184,-0.0297,-0.0301,-0.0305,-0.0329,-0.0337,-0.0343,0,0,0,0,0,-0.0153,-0.0188,-0.0174,-0.0177,-0.0176,-0.0194,-0.0193,-0.0181,-0.0165,-0.0189,-0.0182,-0.0172,-0.0226,-0.0199,-0.0204,-0.0236,-0.0295,-0.03,-0.0305,-0.0326,-0.0335,-0.0343,0,0,0,0,0,0,-0.0203,-0.0188,-0.0173,-0.0206,-0.021,-0.0191,-0.0217,-0.02,-0.021,-0.0214,-0.0193,-0.0196,-0.0239,-0.0244,-0.0215,-0.0288,-0.0263,-0.0269,-0.0277,-0.0286,-0.0293,-0.0265,-0.0186,0,0,0,0,0,-0.0217,-0.0232,-0.0219,-0.025,-0.0256,-0.0237,-0.0245,-0.0237,-0.0238,-0.0242,-0.0243,-0.0252,-0.0261,-0.0278,-0.0292,-0.0334,-0.0316,-0.0364,-0.037,-0.0376,-0.036,-0.0366,-0.0371,-0.0323,-0.0323,-0.0323,0,0,-0.0246,-0.0242,-0.0251,-0.0261,-0.0261,-0.0277,-0.0242,-0.0271,-0.0277,-0.0248,-0.0277,-0.0278,-0.0278,-0.0313,-0.0336,-0.0324,-0.0383,-0.0382,-0.0386,-0.0367,-0.0372,-0.0376,-0.0379,-0.0327,-0.0326,-0.0326,0,0,-0.0304,-0.0309,-0.0332,-0.0338,-0.0347,-0.0335,-0.035,-0.0347,-0.0342,-0.037,-0.034,-0.0355,-0.0393,-0.0377,-0.0376,-0.0436,-0.0416,-0.0464,-0.0477,-0.0484,-0.0487,-0.0489,-0.0473,-0.0473,-0.0471,-0.0471,-0.0471,0,-0.0336,-0.0357,-0.0349,-0.037,-0.0377,-0.0365,-0.0388,-0.0387,-0.0395,-0.0382,-0.0397,-0.0406,-0.0413,-0.0411,-0.0429,-0.0448,-0.0443,-0.0438,-0.0489,-0.0491,-0.0492,-0.0475,-0.0475,-0.0473,-0.0473,-0.0473,-0.0472,0,-0.0392,-0.0415,-0.044,-0.0447,-0.046,-0.049,-0.0476,-0.0485,-0.0482,-0.0465,-0.0477,-0.0479,-0.0475,-0.0494,-0.0478,-0.0494,-0.0484,-0.049,-0.0456,-0.0498,-0.0478,-0.0478,-0.0476,-0.0475,-0.0475,-0.0474,0,0,-0.0427,-0.0466,-0.0473,-0.0476,-0.0498,-0.0505,-0.0522,-0.0512,-0.0495,-0.0523,-0.0506,-0.0526,-0.0513,-0.0511,-0.0501,-0.0508,-0.052,-0.0509,-0.0508,-0.0471,-0.0523,-0.048,-0.0474,-0.0539,-0.0539,-0.0539,-0.0503,0,-0.0465,-0.0511,-0.0521,-0.0558,-0.0571,-0.056,-0.0567,-0.0556,-0.0545,-0.0534,-0.0524,-0.0523,-0.0525,-0.0523,-0.0532,-0.051,-0.052,-0.0527,-0.0506,-0.0504,-0.0443,-0.0473,-0.0455,-0.0419,-0.0503,-0.0502,-0.0502,0,-0.0493,-0.0516,-0.056,-0.0573,-0.0578,-0.0596,-0.0569,-0.0575,-0.0548,-0.0542,-0.0533,-0.0524,-0.0514,-0.0532,-0.0516,-0.0523,-0.0528,-0.0522,-0.0521,-0.0464,-0.046,-0.0394,-0.0414,-0.0501,-0.0501,-0.0501,-0.0501,0,-0.0479,-0.0531,-0.0561,-0.057,-0.0593,-0.0592,-0.0595,-0.0571,-0.0544,-0.0538,-0.0518,-0.0521,-0.0504,-0.0521,-0.0498,-0.0518,-0.0479,-0.0507,-0.0471,-0.0467,-0.0435,-0.0428,-0.0517,-0.0517,-0.0517,-0.0517,-0.0517,0,-0.0487,-0.0505,-0.0555,-0.0565,-0.0568,-0.0589,-0.0569,-0.0563,-0.0541,-0.0493,-0.0519,-0.0471,-0.0504,-0.0477,-0.049,-0.0455,-0.0475,-0.0462,-0.0457,-0.0447,-0.0441,-0.05,-0.0498,-0.0516,-0.0516,-0.0516,-0.0516,0,-0.0451,-0.0498,-0.0517,-0.0554,-0.056,-0.0554,-0.0541,-0.051,-0.0511,-0.0447,-0.0445,-0.0424,-0.039,-0.0403,-0.0404,-0.0418,-0.0411,-0.0402,-0.037,-0.0363,-0.04,-0.04,-0.0368,-0.0366,-0.0364,-0.0363,-0.0362,0,-0.0429,-0.0445,-0.049,-0.0485,-0.05,-0.0495,-0.0477,-0.0487,-0.0443,-0.0389,-0.0345,-0.0314,-0.0242,-0.0227,-0.0262,-0.0277,-0.0335,-0.0297,-0.0337,-0.0386,-0.0385,-0.0388,-0.0391,-0.031,-0.0309,-0.0307,-0.0307,0,-0.0366,-0.0397,-0.041,-0.0415,-0.0409,-0.0389,-0.0367,-0.033,-0.0313,-0.0254,-0.0154,-0.0101,-0.0087,-0.0086,-0.0137,-0.0158,-0.0297,-0.0272,-0.0333,-0.0347,-0.0328,-0.0328,-0.0334,-0.0296,-0.0297,-0.0298,-0.0299,-0.0299,-0.03,-0.0295,-0.0322,-0.0318,-0.031,-0.0271,-0.0227,-0.0182,-0.0103,0.0022,0.0031,0.0107,0.0036,0.001,-0.0048,-0.0154,-0.0169,-0.0234,-0.024,-0.0246,-0.0242,-0.0222,-0.0168,-0.0168,-0.0168,-0.0168,-0.0169,0,-0.0202,-0.0217,-0.0211,-0.0206,-0.0171,-0.0198,-0.0135,-0.0065,0.0058,0.0182,0.0294,0.0207,0.0197,0.0074,-0.0054,-0.0115,-0.0143,-0.0161,-0.0203,-0.0211,-0.0219,-0.0217,-0.0134,-0.0135,-0.0135,-0.0135,0,0,-0.0145,-0.0122,-0.0136,-0.0071,-0.0065,0.0002,0.0048,0.015,0.0249,0.0364,0.0394,0.048,0.0271,0.0174,0.0066,-0.003,-0.0084,-0.0035,-0.005,-0.0087,-0.0093,-0.0248,-0.0251,0,0,0,0,0]}],[{"header":{"parameterUnit":"m.s-1","parameterCategory":2,"la1":30.2991,"la2":30.254,"lo1":-89.0895,"lo2":-89.0444,"dy":0.0017,"dx":0.0017,"nx":28,"ny":28,"refTime":"2024-08-09T21:00:00:Z","depth":"4","parameterNumber":2,"parameterNumberName":"U-component_of_CURRENTS"},"data":[0,0,0,0,0,0,0,0,0,0,0,0,0,0,0,0,0,0,0,0,0,0,0,0,0,0,0,0,0,0,0,0,0,0,0,0,0,0,0,0,0,0,0,0,0,0,0,0,0,0,0,0,0,0,0,0,0,0,-0.0282,-0.0282,0,-0.0271,-0.0271,-0.027,-0.0236,-0.0235,-0.0235,-0.0235,-0.0259,-0.026,-0.0261,0,0,0,0,0,0,0,0,0,0,0,0,0,-0.0276,-0.0275,-0.0282,-0.0282,-0.0282,-0.0272,-0.0271,-0.027,-0.0236,-0.0235,-0.0235,-0.0235,-0.0259,-0.026,-0.0261,0,0,0,0,0,0,0,0,0,0,0,0,0,-0.0268,-0.0275,-0.0281,-0.0268,-0.0267,-0.0272,-0.0271,-0.027,-0.0236,-0.0235,-0.0235,-0.0235,-0.0259,-0.026,-0.0262,-0.0279,0,0,-0.0266,-0.0266,0,0,0,0,0,0,0,0,-0.0269,-0.0268,-0.0269,-0.0269,-0.0268,-0.0259,-0.0278,-0.0277,-0.0236,-0.0242,-0.0235,-0.0234,-0.0266,-0.0267,-0.0258,-0.028,-0.0281,-0.0266,-0.0267,-0.0267,-0.0268,0,0,0,0,0,0,0,-0.0269,-0.0268,-0.0272,-0.027,-0.0269,-0.0264,-0.0262,-0.0277,-0.0253,-0.0242,-0.024,-0.0248,-0.0265,-0.0257,-0.0259,-0.0282,-0.0266,-0.0267,-0.0268,-0.0269,-0.0324,-0.0325,0,0,0,0,0,0,-0.0281,-0.0269,-0.0273,-0.0272,-0.0273,-0.0265,-0.0262,-0.0258,-0.0253,-0.0252,-0.0248,-0.0246,-0.0255,-0.0257,-0.026,-0.0284,-0.0267,-0.0269,-0.027,-0.0323,-0.0324,-0.0325,0,0,0,0,0,0,-0.0281,-0.0281,-0.0273,-0.0275,-0.0274,-0.0266,-0.0261,-0.0258,-0.0255,-0.0258,-0.0257,-0.0249,-0.0254,-0.0258,-0.0271,-0.0285,-0.0269,-0.0271,-0.0323,-0.0324,-0.0325,-0.0331,0,0,0,0,0,0,-0.028,-0.0281,-0.0293,-0.0276,-0.0275,-0.0275,-0.0262,-0.0258,-0.0262,-0.026,-0.0259,-0.026,-0.0254,-0.0269,-0.0272,-0.0286,-0.0272,-0.0322,-0.0323,-0.0324,-0.033,-0.0332,-0.0334,0,0,0,0,0,-0.028,-0.0295,-0.0293,-0.0295,-0.0288,-0.0276,-0.0274,-0.0264,-0.0263,-0.0259,-0.0259,-0.0261,-0.0279,-0.027,-0.0274,-0.0289,-0.0321,-0.0323,-0.0324,-0.0329,-0.0331,-0.0333,0,0,0,0,0,0,-0.0297,-0.0293,-0.029,-0.0303,-0.0292,-0.0272,-0.0283,-0.0272,-0.0267,-0.0282,-0.0267,-0.0268,-0.0286,-0.029,-0.028,-0.0309,-0.0302,-0.0304,-0.0304,-0.0307,-0.0308,-0.0308,-0.0273,0,0,0,0,0,-0.0309,-0.0319,-0.0306,-0.0317,-0.0317,-0.0302,-0.0303,-0.0299,-0.0292,-0.0289,-0.0284,-0.0291,-0.0295,-0.0301,-0.0309,-0.0327,-0.0319,-0.034,-0.0342,-0.0344,-0.0347,-0.0349,-0.0351,-0.033,-0.033,-0.033,0,0,-0.0318,-0.0322,-0.0326,-0.0323,-0.0318,-0.0313,-0.0299,-0.0312,-0.0312,-0.0297,-0.0304,-0.0302,-0.0302,-0.0314,-0.0323,-0.0319,-0.0343,-0.0345,-0.0347,-0.0349,-0.035,-0.0352,-0.0354,-0.0331,-0.033,-0.033,0,0,-0.033,-0.0345,-0.0348,-0.0344,-0.0352,-0.0346,-0.035,-0.0339,-0.034,-0.0346,-0.0336,-0.0342,-0.0346,-0.0343,-0.0343,-0.0366,-0.0353,-0.037,-0.0379,-0.0381,-0.0383,-0.0384,-0.036,-0.0359,-0.037,-0.037,-0.037,0,-0.0337,-0.0341,-0.0347,-0.0346,-0.0353,-0.0358,-0.0358,-0.036,-0.0355,-0.0362,-0.0355,-0.0353,-0.036,-0.0362,-0.0366,-0.0371,-0.0357,-0.0368,-0.0382,-0.0384,-0.0385,-0.036,-0.0359,-0.0371,-0.0371,-0.0371,-0.037,0,-0.0339,-0.0348,-0.0354,-0.0353,-0.036,-0.037,-0.0376,-0.0394,-0.0404,-0.0393,-0.0402,-0.0396,-0.0388,-0.0394,-0.0386,-0.0397,-0.0378,-0.0384,-0.0374,-0.0387,-0.036,-0.0359,-0.0371,-0.0371,-0.0371,-0.0371,0,0,-0.033,-0.0347,-0.0349,-0.0356,-0.0372,-0.0377,-0.0405,-0.0415,-0.0431,-0.0427,-0.0423,-0.0429,-0.0416,-0.0416,-0.0406,-0.0408,-0.0404,-0.0399,-0.0398,-0.0369,-0.0382,-0.034,-0.0334,-0.0406,-0.0407,-0.0407,-0.0353,0,-0.0323,-0.0325,-0.0341,-0.0355,-0.0358,-0.039,-0.0409,-0.0432,-0.0443,-0.0444,-0.0443,-0.0429,-0.0426,-0.0415,-0.0421,-0.0407,-0.0403,-0.0416,-0.0379,-0.0378,-0.0334,-0.0333,-0.0408,-0.0352,-0.0352,-0.0352,-0.0351,0,-0.0315,-0.0321,-0.0328,-0.0365,-0.0371,-0.0392,-0.0442,-0.0455,-0.0471,-0.047,-0.0459,-0.0441,-0.043,-0.0429,-0.041,-0.0413,-0.0403,-0.0393,-0.0391,-0.0351,-0.0334,-0.0341,-0.0349,-0.0349,-0.0349,-0.035,-0.035,0,-0.0306,-0.0319,-0.0333,-0.034,-0.0373,-0.0411,-0.0438,-0.047,-0.0478,-0.0474,-0.0458,-0.0446,-0.0421,-0.0417,-0.0391,-0.0399,-0.0365,-0.0376,-0.0324,-0.032,-0.0371,-0.037,-0.0373,-0.0373,-0.0373,-0.0374,-0.0374,0,-0.0296,-0.0309,-0.0338,-0.0344,-0.0386,-0.0412,-0.0453,-0.0479,-0.0485,-0.0476,-0.046,-0.0438,-0.0419,-0.0391,-0.0385,-0.0337,-0.0358,-0.0321,-0.0308,-0.0372,-0.0373,-0.0368,-0.0369,-0.0372,-0.0372,-0.0372,-0.0373,0,-0.0289,-0.03,-0.0317,-0.0357,-0.0383,-0.0413,-0.0463,-0.0473,-0.0479,-0.0464,-0.045,-0.042,-0.038,-0.0351,-0.033,-0.0311,-0.0285,-0.0268,-0.0313,-0.0304,-0.0239,-0.024,-0.0203,-0.0201,-0.0199,-0.0198,-0.0197,0,-0.0288,-0.0292,-0.0326,-0.0344,-0.0374,-0.0419,-0.0447,-0.0471,-0.047,-0.0452,-0.0434,-0.0387,-0.0364,-0.0275,-0.0275,-0.023,-0.0234,-0.0207,-0.025,-0.0233,-0.0224,-0.0228,-0.0231,-0.0195,-0.0194,-0.0194,-0.0193,0,-0.0282,-0.0293,-0.0302,-0.0336,-0.0372,-0.039,-0.0432,-0.0421,-0.0429,-0.0439,-0.0384,-0.0339,-0.0287,-0.025,-0.0199,-0.0186,-0.0219,-0.0191,-0.0194,-0.0235,-0.0222,-0.0216,-0.0221,-0.0188,-0.0189,-0.0189,-0.0189,0,-0.0284,-0.0281,-0.0293,-0.0323,-0.035,-0.0346,-0.0372,-0.0368,-0.0365,-0.0351,-0.0343,-0.0297,-0.029,-0.0227,-0.02,-0.0157,-0.0161,-0.0153,-0.0159,-0.0165,-0.0178,-0.0159,-0.0088,0,0,0,0,0,-0.028,-0.0267,-0.0284,-0.0288,-0.0302,-0.0322,-0.035,-0.0365,-0.0383,-0.0328,-0.0329,-0.0282,-0.0213,-0.0203,-0.0148,-0.0188,-0.0165,-0.0125,-0.016,-0.0158,-0.0164,-0.0184,0,0,0,0,0,0,-0.0275,-0.0278,-0.0268,-0.0248,-0.0245,-0.0252,-0.0264,-0.0276,-0.0256,-0.0274,-0.0239,-0.0254,-0.0197,-0.0226,-0.0136,-0.0132,-0.0144,-0.0113,-0.0112,-0.0154,-0.016,-0.0165,-0.0187,0,0,0,0,0]},{"header":{"parameterUnit":"m.s-1","parameterCategory":2,"la1":30.2991,"la2":30.254,"lo1":-89.0895,"lo2":-89.0444,"dy":0.0017,"dx":0.0017,"nx":28,"ny":28,"refTime":"2024-08-09T21:00:00:Z","depth":"4","parameterNumber":3,"parameterNumberName":"V-component_of_CURRENTS"},"data":[0,0,0,0,0,0,0,0,0,0,0,0,0,0,0,0,0,0,0,0,0,0,0,0,0,0,0,0,0,0,0,0,0,0,0,0,0,0,0,0,0,0,0,0,0,0,0,0,0,0,0,0,0,0,0,0,0,0,0.0404,0.0405,0,0.0438,0.0437,0.0436,0.0469,0.0471,0.0473,0.0474,0.051,0.0509,0.0508,0,0,0,0,0,0,0,0,0,0,0,0,0,0.0315,0.0315,0.0403,0.0405,0.0407,0.0438,0.0437,0.0436,0.0469,0.0471,0.0473,0.0475,0.051,0.0509,0.0508,0,0,0,0,0,0,0,0,0,0,0,0,0,0.0337,0.0315,0.0403,0.0438,0.0443,0.0438,0.0437,0.0436,0.0468,0.0471,0.0474,0.0476,0.051,0.0509,0.0508,0.0447,0,0,0.0505,0.0504,0,0,0,0,0,0,0,0,0.0336,0.0338,0.0431,0.0436,0.0441,0.0465,0.042,0.0445,0.0468,0.0443,0.0475,0.0478,0.0503,0.0502,0.0481,0.0448,0.045,0.0504,0.0504,0.0503,0.0503,0,0,0,0,0,0,0,0.0334,0.0337,0.0402,0.0433,0.044,0.0436,0.0441,0.0423,0.0445,0.0445,0.0451,0.0478,0.0504,0.0482,0.0483,0.045,0.0505,0.0503,0.0503,0.0502,0.0444,0.0444,0,0,0,0,0,0,0.036,0.0335,0.0401,0.0404,0.0411,0.0437,0.0441,0.0442,0.0446,0.0453,0.0476,0.048,0.0483,0.0484,0.0484,0.0475,0.0503,0.0502,0.0502,0.0445,0.0444,0.0443,0,0,0,0,0,0,0.0357,0.0364,0.04,0.0384,0.0391,0.0437,0.0437,0.0442,0.0454,0.0472,0.0477,0.049,0.0485,0.0486,0.0505,0.0475,0.0502,0.0501,0.0446,0.0445,0.0444,0.0417,0,0,0,0,0,0,0.0354,0.0362,0.0366,0.0385,0.0393,0.0399,0.0436,0.0441,0.0473,0.0478,0.0485,0.0489,0.0487,0.0507,0.0504,0.0474,0.05,0.0447,0.0446,0.0444,0.0419,0.0415,0.0411,0,0,0,0,0,0.035,0.0349,0.0365,0.0374,0.0398,0.04,0.04,0.0433,0.0471,0.0456,0.049,0.049,0.0494,0.0506,0.0503,0.0471,0.0448,0.0446,0.0444,0.042,0.0416,0.0411,0,0,0,0,0,0,0.0324,0.0354,0.0372,0.0384,0.0395,0.0411,0.0418,0.0442,0.0451,0.0482,0.0489,0.0493,0.0493,0.0489,0.0502,0.0449,0.0465,0.0463,0.0448,0.0444,0.044,0.0431,0.0499,0,0,0,0,0,0.0318,0.032,0.0349,0.0359,0.0367,0.0393,0.0404,0.0433,0.0455,0.0462,0.0476,0.0486,0.047,0.0471,0.0461,0.0437,0.0432,0.0411,0.0407,0.0404,0.0394,0.0373,0.0367,0.0437,0.0437,0.0437,0,0,0.0318,0.0336,0.034,0.0354,0.0366,0.037,0.0401,0.0431,0.0442,0.0464,0.0483,0.048,0.0464,0.044,0.0436,0.0441,0.0383,0.0402,0.0399,0.0391,0.0371,0.0364,0.0358,0.0436,0.0436,0.0436,0,0,0.032,0.0325,0.033,0.033,0.0369,0.0375,0.0391,0.0421,0.0437,0.0448,0.0467,0.0459,0.0443,0.042,0.0404,0.0372,0.0368,0.0363,0.033,0.031,0.0304,0.0299,0.0289,0.0283,0.0356,0.0356,0.0356,0,0.0324,0.0327,0.0331,0.0334,0.0345,0.038,0.0389,0.0392,0.0431,0.0432,0.046,0.0425,0.0423,0.0371,0.0359,0.0361,0.0356,0.035,0.0305,0.03,0.0295,0.0286,0.028,0.0354,0.0354,0.0354,0.0355,0,0.0327,0.0329,0.033,0.0337,0.0338,0.0351,0.0369,0.0379,0.0409,0.041,0.0391,0.0384,0.0354,0.0343,0.034,0.0288,0.0298,0.0309,0.0318,0.0287,0.0279,0.0273,0.0352,0.0353,0.0353,0.0353,0,0,0.0337,0.0334,0.0336,0.0328,0.0345,0.0341,0.0352,0.0347,0.0343,0.0357,0.0333,0.0298,0.0292,0.0273,0.0263,0.0244,0.0208,0.0257,0.0257,0.0249,0.0169,0.0166,0.016,0.0212,0.0211,0.021,0.0179,0,0.0341,0.0337,0.0341,0.033,0.0319,0.0333,0.0325,0.0328,0.0326,0.0305,0.0287,0.0257,0.0264,0.0245,0.0222,0.0215,0.019,0.0215,0.0198,0.0198,0.0201,0.0151,0.0206,0.0175,0.0173,0.0172,0.0172,0,0.034,0.0332,0.0327,0.0305,0.0304,0.0309,0.0288,0.0285,0.0258,0.0253,0.0217,0.0205,0.0163,0.0183,0.0142,0.016,0.0153,0.0153,0.0152,0.0153,0.0183,0.0211,0.0161,0.0162,0.0162,0.0163,0.0164,0,0.0318,0.0315,0.0307,0.03,0.0288,0.0295,0.0294,0.0274,0.0255,0.0216,0.0193,0.015,0.0129,0.0113,0.0111,0.0122,0.0081,0.0099,0.0087,0.0088,0.0115,0.0121,0.006,0.006,0.006,0.006,0.006,0,0.0299,0.0286,0.0299,0.0285,0.0271,0.0277,0.0254,0.0244,0.0218,0.0176,0.0161,0.012,0.011,0.0089,0.0091,0.0069,0.0062,0.0065,0.007,0.0105,0.011,0.0111,0.0117,0.0059,0.0059,0.0059,0.006,0,0.0262,0.0274,0.0248,0.0251,0.0256,0.0242,0.0235,0.0202,0.0196,0.0144,0.0129,0.0091,0.0065,0.0064,0.0041,0.0041,0.0028,0.0023,0.006,0.0072,0.0053,0.0058,-0.0006,-0.0007,-0.0007,-0.0008,-0.0008,0,0.0236,0.0227,0.022,0.0207,0.0214,0.0204,0.0189,0.0186,0.0151,0.012,0.0085,0.0058,0.0034,-0.0001,0.0005,0.0002,0.0007,-0.0001,0.0015,0.0029,0.0041,0.0047,0.0053,-0.0009,-0.0009,-0.0009,-0.0009,0,0.0177,0.0187,0.0166,0.0153,0.0144,0.0112,0.0103,0.0081,0.0068,0.0071,0.003,0.0017,-0.0012,-0.0022,-0.0019,-0.002,0.0003,-0.0006,-0.0005,0.001,0.0025,0.0039,0.0045,-0.0011,-0.001,-0.001,-0.001,0,0.0129,0.0108,0.0099,0.0087,0.0067,0.0032,0.003,0.0009,-0.0011,-0.0011,-0.0025,-0.0031,-0.0026,-0.0036,-0.0036,-0.0032,-0.0033,-0.0032,-0.0029,-0.0028,-0.0018,-0.0,-0.0059,0,0,0,0,0,0.0077,0.0058,0.0035,0.0016,-0.0002,-0.0006,-0.0029,-0.0029,-0.0015,-0.005,-0.0031,-0.0051,-0.0053,-0.006,-0.0061,-0.0053,-0.0038,-0.0054,-0.0037,-0.002,-0.0018,-0.0003,0,0,0,0,0,0,0.0034,0.001,0.0015,-0.0031,-0.0046,-0.0076,-0.0092,-0.0086,-0.01,-0.0074,-0.008,-0.0046,-0.0055,-0.0044,-0.0056,-0.0055,-0.0046,-0.0042,-0.0042,-0.0021,-0.0019,-0.0018,-0.0001,0,0,0,0,0]}]]